Dewpoint
63 67 71 70 70 69 68 69 69 69 69 69 68 69 69 68 68 67 67 67 66 66 66 66 67 67 67 67 67 68 68 68 67 67 67 64 63 64 65 66 64 57 61
63 67 71 70 70 68 69 70 70 70 69 68 67 66 66 66 65 65 64 63 62 62 62 62 62 62 63 64 65 66 67 67 67 68 68 65 65 67 67 65 66 62 65
64 66 68 70 69 69 69 70 68 67 67 66 65 64 64 63 62 61 60 60 59 58 58 58 58 58 58 58 59 61 62 63 62 63 66 63 61 67 67 65 67 65 64
65 65 68 69 67 69 70 68 67 66 65 64 63 61 60 60 59 59 58 58 58 58 58 58 58 58 58 57 57 57 57 57 57 54 61 62 62 65 67 66 65 65 64
64 66 68 68 69 70 69 68 67 65 63 61 60 59 59 58 58 58 58 58 58 57 57 57 57 58 57 57 57 56 56 56 54 47 52 58 60 60 63 64 64 65 63
66 67 69 69 70 69 68 67 65 62 60 59 58 57 57 57 57 57 56 56 56 57 57 56 56 56 56 56 55 56 61 62 58 49 43 47 55 57 64 66 66 65 65
66 67 67 70 69 68 67 64 61 59 58 59 57 57 57 57 57 56 56 56 56 56 55 54 54 55 55 55 57 60 61 61 55 55 51 49 56 65 65 65 65 65 65
66 66 67 69 68 66 64 60 58 58 59 57 56 56 55 55 55 54 54 53 53 53 52 52 53 54 53 55 59 61 61 60 54 55 55 58 63 63 64 64 64 64 63
66 66 67 66 65 63 61 59 59 58 57 57 57 55 54 54 52 51 51 51 51 51 51 51 52 52 52 56 58 60 60 58 53 54 55 61 63 63 63 63 63 63 64
66 66 65 64 61 57 55 60 59 58 56 55 56 55 54 52 49 48 47 50 50 50 50 50 50 50 52 56 58 59 57 53 51 52 54 58 60 60 60 61 62 61 61
64 63 63 61 57 54 54 57 58 58 57 54 52 50 44 39 40 42 49 48 48 49 49 49 48 49 47 55 58 57 53 48 48 49 51 56 55 55 59 59 60 60 60
60 60 60 56 53 52 50 49 48 49 47 45 44 43 39 38 38 39 44 45 45 44 46 45 46 45 43 43 50 52 48 48 48 47 50 56 57 59 59 59 59 59 58
58 54 54 53 51 47 46 45 44 44 44 43 42 40 37 35 36 36 36 36 35 37 35 35 39 43 44 47 49 49 49 47 46 46 53 56 58 58 57 58 58 58 58
53 51 50 50 49 47 46 44 43 43 42 42 41 38 36 34 35 34 34 35 35 35 35 36 41 45 46 47 49 49 49 47 46 46 51 55 54 54 55 55 56 55 55
50 47 50 49 48 48 46 44 42 42 41 40 39 37 36 34 34 35 34 34 34 34 35 34 39 43 47 48 50 49 49 48 46 45 47 51 51 51 51 52 52 52 52
47 46 48 49 48 48 47 46 42 40 39 39 39 37 37 35 35 35 35 35 34 34 35 34 35 41 46 49 50 50 50 48 44 42 42 45 48 47 47 47 47 47 48
45 46 47 49 48 48 47 45 43 41 38 37 38 38 37 37 36 36 35 35 35 35 34 35 35 35 42 48 49 49 48 46 44 41 41 41 42 46 45 44 43 44 45
47 45 47 47 47 47 46 45 43 41 39 39 38 38 37 38 38 37 36 35 35 36 35 34 35 35 34 39 44 47 46 46 44 42 42 41 40 38 41 42 41 41 43
47 46 47 48 46 45 45 45 44 43 41 40 40 39 39 38 38 37 37 36 36 36 35 33 34 35 34 35 35 45 47 46 45 43 42 42 42 39 37 38 39 40 40
49 48 48 47 45 45 45 45 45 44 43 43 41 40 40 39 39 38 38 38 37 37 35 35 34 35 35 35 33 35 43 47 47 45 44 42 42 41 39 38 34 32 38
49 47 48 47 46 45 44 43 43 42 44 43 43 42 41 40 40 41 39 40 39 38 37 36 36 35 35 36 36 35 38 44 45 46 46 44 43 42 40 39 36 33 30
48 48 47 46 45 44 43 42 43 43 44 44 45 44 43 42 43 42 42 42 41 41 40 39 38 36 35 36 34 34 31 32 41 44 43 44 44 43 41 40 38 36 33
49 48 48 47 45 45 44 45 45 46 46 45 45 45 45 44 45 44 44 44 44 44 43 42 41 40 37 37 37 35 32 30 32 34 38 41 42 43 42 41 39 37 35
50 51 50 49 46 46 46 44 43 41 42 43 44 45 46 45 45 46 46 45 45 45 44 44 42 42 40 39 38 37 37 35 32 31 34 36 39 38 39 39 38 37 36
52 51 51 50 47 46 46 44 43 42 42 43 42 43 44 44 45 46 46 45 44 44 44 44 44 42 41 39 39 37 35 35 35 33 32 32 34 34 35 35 35 37 36
52 52 51 47 46 46 46 45 45 43 42 42 42 42 43 44 45 43 41 41 41 41 42 43 44 44 43 41 39 38 37 35 34 34 33 33 33 35 35 35 35 35 36
Wind_Speed
18 22 20 18 19 17 15 13 12 11 11 10 11 10 12 13 14 13 12 12 12 13 13 12 13 12 11 11 12 12 7 5 5 6 5 4 5 5 4 4 6 6 6
23 23 20 19 20 18 15 12 12 14 14 15 14 13 13 12 12 12 11 12 11 11 11 10 10 9 9 9 10 10 9 11 9 8 6 2 3 7 7 1 4 7 4
25 23 20 20 19 17 15 13 15 14 14 13 13 12 12 12 12 11 11 11 11 11 11 11 10 10 9 8 7 8 8 9 8 7 4 2 3 7 8 4 0 3 4
23 22 21 20 18 16 16 17 15 13 12 13 12 11 11 11 11 11 11 11 11 11 11 11 11 11 11 10 9 8 8 7 7 7 4 4 3 7 9 8 1 2 3
22 20 22 20 18 18 16 16 14 13 13 13 13 12 12 12 12 12 12 12 12 11 11 11 11 11 12 11 10 9 9 8 6 6 4 4 5 6 8 8 8 4 2
21 20 22 20 18 19 17 15 14 14 14 14 13 13 13 13 13 12 11 11 10 11 11 11 11 10 11 11 11 11 10 9 5 5 3 3 5 9 10 9 8 6 6
22 21 21 20 21 18 16 14 14 14 14 14 14 14 13 13 12 12 12 11 11 11 11 11 11 11 11 11 11 11 10 8 9 9 7 5 6 7 11 11 11 11 10
22 21 21 21 22 18 16 14 14 15 15 15 14 14 13 13 13 12 12 12 11 11 11 11 10 11 11 11 11 11 11 10 10 11 11 13 11 12 12 12 12 12 12
20 20 20 19 20 16 15 15 15 15 15 14 13 14 13 14 13 13 12 12 11 11 11 11 10 10 10 11 10 11 10 10 10 10 13 15 15 14 13 12 11 12 12
19 18 18 18 17 15 15 14 16 15 15 13 13 13 14 14 12 11 10 11 11 10 11 10 9 9 10 10 10 8 5 5 10 8 12 14 14 15 16 15 14 14 13
15 15 16 16 15 15 15 15 15 14 15 14 12 11 8 9 8 10 11 11 10 10 10 10 8 8 5 9 9 7 4 9 9 9 10 14 12 12 14 12 14 13 14
16 14 14 15 15 16 13 13 11 11 8 8 8 7 7 8 8 9 9 10 9 7 8 8 7 4 2 5 6 3 8 9 9 11 12 14 12 12 13 14 14 13 13
16 12 12 13 14 15 12 11 9 8 8 8 7 6 7 6 6 5 5 5 5 4 6 6 5 6 7 5 6 7 8 8 8 10 14 15 14 14 14 15 15 15 16
16 15 14 14 13 12 12 9 9 8 8 7 7 7 6 5 5 5 5 5 5 5 6 7 6 6 6 6 6 8 8 8 7 8 13 16 15 14 14 14 15 13 14
16 14 12 13 13 12 12 10 9 9 8 8 8 7 6 6 5 4 5 5 5 5 6 7 5 5 7 5 6 7 7 7 8 7 9 15 16 15 14 15 13 15 15
18 16 13 11 12 12 10 10 10 8 9 8 8 7 6 6 5 5 5 5 5 5 5 6 5 5 6 4 5 5 5 5 7 7 7 11 14 14 13 12 13 13 11
17 17 17 12 12 12 11 10 10 9 8 8 8 8 7 5 5 4 4 4 4 5 5 4 6 5 4 3 3 3 3 4 4 5 6 6 8 13 12 12 11 11 11
18 18 14 14 14 13 11 9 9 10 8 7 8 8 7 6 4 4 4 4 3 4 4 4 4 4 4 1 1 2 2 2 3 3 3 4 5 4 8 10 10 10 10
19 17 15 14 15 14 13 9 9 9 8 8 7 7 7 6 4 4 4 4 3 3 4 3 3 2 3 2 1 2 2 3 3 3 3 3 4 2 3 6 7 9 9
13 14 13 12 15 14 11 9 8 7 6 7 7 7 8 7 5 4 4 4 3 3 3 2 2 2 2 3 1 3 4 5 5 5 4 3 3 2 1 2 2 5 7
8 14 13 13 15 15 13 12 8 9 7 6 6 7 7 6 5 3 3 3 3 2 2 2 1 1 1 3 2 3 4 6 6 5 5 5 5 4 2 1 1 2 1
13 14 11 13 14 13 11 9 6 9 7 7 7 7 6 6 5 4 3 3 3 2 1 0 1 1 1 4 3 3 3 4 6 6 6 6 6 5 5 4 3 3 2
16 15 15 13 15 12 11 9 8 7 5 7 8 8 8 6 5 4 4 3 2 2 2 2 1 2 3 1 2 4 3 3 4 4 5 5 5 6 6 6 6 5 5
17 11 10 10 13 13 13 11 12 11 9 7 8 7 7 7 6 6 4 4 4 3 3 2 2 3 3 4 3 3 3 4 3 5 3 4 5 7 7 6 7 8 7
15 14 12 17 13 13 13 12 11 10 7 8 7 9 7 6 5 6 4 3 3 3 3 4 5 5 5 6 5 3 4 4 5 6 11 6 6 7 8 8 9 8 8
14 16 16 18 17 14 14 14 13 11 9 10 9 9 8 7 6 5 4 3 3 3 4 4 4 6 6 6 6 6 7 6 5 7 9 11 12 11 7 10 9 8 8
Wind_Direction
163 153 157 157 149 141 140 134 129 126 118 125 119 106 96 82 71 66 61 55 48 42 43 39 38 34 29 33 33 41 43 65 60 43 30 30 27 22 18 26 334 51 37
152 153 156 155 145 141 139 133 121 109 103 92 86 82 73 70 70 68 62 59 56 51 47 44 39 35 30 27 19 24 32 34 30 27 1 231 87 17 3 21 359 35 22
149 148 156 147 138 138 135 129 114 101 86 81 76 76 75 69 62 59 61 58 53 51 46 44 39 33 30 28 24 21 21 23 17 5 312 338 28 20 359 32 228 358 4
146 149 145 138 143 138 138 124 112 108 104 98 94 87 81 75 71 66 61 63 61 57 55 51 47 40 37 38 34 29 24 14 358 334 312 357 345 51 355 13 317 299 350
147 148 136 137 141 134 122 112 114 114 108 101 95 90 85 79 76 74 66 61 60 56 54 55 50 43 41 41 40 32 27 14 347 301 323 344 338 36 349 345 334 276 11
150 144 139 140 140 120 117 123 120 115 109 105 99 93 91 85 79 72 66 66 56 56 54 49 47 49 44 42 42 38 39 23 305 20 350 353 329 5 350 23 30 59 1
149 141 145 136 123 119 122 125 122 117 113 110 104 98 92 87 82 73 67 63 58 53 52 47 49 48 44 39 43 46 33 11 36 51 60 50 40 26 45 50 54 57 49
146 147 139 126 119 124 129 127 122 119 115 111 104 98 91 85 81 74 67 62 57 54 53 48 48 50 47 44 49 49 36 359 55 51 58 61 56 62 55 59 58 57 50
146 145 139 133 119 124 125 126 123 119 113 109 105 98 91 86 80 74 68 63 58 52 54 52 52 51 50 54 53 53 44 14 60 56 53 41 45 47 47 47 50 56 58
142 140 139 137 137 136 130 115 114 116 113 111 108 105 99 91 84 75 78 64 62 55 54 55 52 52 54 57 54 46 35 20 63 58 60 22 40 47 44 43 45 54 52
133 140 141 141 141 135 130 119 109 110 114 116 113 111 118 94 87 83 71 69 63 62 58 56 51 46 75 76 61 43 349 53 59 54 43 13 26 32 37 37 44 51 52
142 135 142 145 144 135 138 135 130 134 135 125 126 117 100 92 84 86 81 74 65 67 65 57 48 47 58 74 98 106 60 64 59 55 44 23 33 57 57 54 51 46 52
141 132 147 150 149 141 141 141 139 135 134 124 120 115 107 106 105 95 92 79 69 44 58 62 62 52 61 63 75 71 64 55 63 59 41 31 38 47 51 51 45 44 45
148 149 147 154 154 142 141 142 137 139 138 134 124 120 118 106 99 95 90 83 71 53 62 54 59 62 71 72 77 80 67 61 54 53 56 35 38 40 38 39 34 33 30
148 149 153 160 156 150 145 142 137 140 138 133 130 123 121 113 110 109 95 86 80 69 60 61 59 68 70 79 82 83 72 64 54 58 71 43 42 38 36 32 24 25 23
157 154 154 161 159 159 147 147 142 135 133 135 125 123 117 116 122 114 104 89 80 72 69 63 56 59 66 75 89 80 74 69 61 63 66 71 53 49 46 43 38 36 27
158 157 163 155 165 155 147 150 140 136 145 140 130 129 121 121 125 120 106 95 77 70 75 83 72 67 75 75 92 87 87 76 67 74 70 65 86 63 51 46 43 40 34
152 161 163 158 165 156 155 156 144 146 147 145 138 133 129 131 139 133 119 100 85 79 69 67 64 73 66 87 162 131 140 128 110 98 94 88 72 59 75 48 46 42 37
156 157 165 161 163 158 154 152 146 150 153 149 149 142 138 141 148 138 126 116 106 78 64 60 68 52 41 49 232 207 209 205 189 183 148 116 96 64 64 74 52 41 32
157 152 157 165 164 156 150 147 148 150 160 159 158 158 157 154 156 159 141 116 97 94 86 86 70 67 29 357 254 240 236 229 226 220 201 189 168 177 108 37 31 55 34
150 147 159 170 169 159 159 160 163 170 172 172 176 171 171 160 160 171 137 125 117 99 69 38 70 20 65 9 292 242 246 234 236 234 228 232 216 220 221 244 327 343 37
179 162 164 185 180 172 169 169 170 166 183 177 175 189 181 169 170 174 160 151 146 142 140 231 290 273 7 17 333 296 262 205 226 227 237 246 242 229 238 242 255 268 292
181 176 176 185 186 179 173 156 140 136 152 172 184 192 186 172 173 201 181 190 190 207 226 240 299 334 316 263 289 295 271 278 306 191 221 234 236 240 250 248 251 249 255
173 173 190 192 193 186 179 179 179 183 180 190 182 183 173 172 166 210 197 214 233 240 249 265 257 264 255 267 249 240 277 312 303 298 210 241 253 263 257 254 256 247 245
168 176 190 203 203 195 191 195 200 196 178 159 165 165 171 160 178 204 196 203 241 251 255 246 235 237 246 272 263 260 259 261 256 260 284 273 266 249 268 267 270 257 244
160 191 201 206 194 196 204 204 205 205 181 168 169 176 177 170 184 196 190 195 229 244 249 254 253 254 256 256 259 251 256 263 262 254 270 285 293 293 280 278 263 256 244